Appleton, MN

8:21 AM CST on November 12, 2019 (GMT -0600)
Appleton Municipal

Weather History for KAQP - August, 2019

Change the Weather History Date:

Monday, August 12, 2019

  Actual Average Record
Temperature  
Mean Temperature 72 °F -  
Max Temperature 78 °F 77 °F 89 °F (2015)
Min Temperature 66 °F 55 °F 48 °F (2004)
Cooling Degree Days 7    
Growing Degree Days 22 (Base 50)    
Moisture  
Dew Point 65 °F    
Average Humidity 83    
Maximum Humidity 94    
Minimum Humidity 61    
Precipitation  
Precipitation 0.00 in - - ()
Sea Level Pressure  
Sea Level Pressure 29.88 in    
Wind  
Wind Speed 1 mph (ESE)    
Max Wind Speed 7 mph    
Max Gust Speed -    
Visibility 8 miles    
Events Rain    
Averages and records for this station are not official NWS values.
T = Trace of Precipitation, MM = Missing Value Source: NWS Daily Summary

Daily Weather History Graph

Daily Weather History Graph

Search for Another Location

Airport or City:

Astronomy

Aug. 12, 2019 Rise Set
Actual Time 6:21 AM CDT 8:35 PM CDT
Civil Twilight 5:48 AM CDT 9:08 PM CDT
Nautical Twilight 5:08 AM CDT 9:48 PM CDT
Astronomical Twilight 4:23 AM CDT 10:33 PM CDT
Moon 7:13 PM CDT 3:24 AM CDT
Length of Visible Light 15h 19m
Length of Day
14h 14m
Waxing Gibbous, 93% of the Moon is Illuminated
Aug 12
Waxing Gibbous
Aug 15
Full
Aug 23
Last Quarter
Aug 30
New
Sep 5
First Quarter

Hourly Weather History & Observations

Time (CDT) Temp. Dew Point Humidity Pressure Visibility Wind Dir Wind Speed Gust Speed Precip Events Conditions
12:11 AM 68.0 °F 64.4 °F 88% 29.94 in 10.0 mi Calm Calm - N/A   Clear
12:32 AM 68.0 °F 64.4 °F 88% 29.94 in 10.0 mi Calm Calm - N/A   Clear
12:51 AM 66.2 °F 64.4 °F 94% 29.95 in 7.0 mi Calm Calm - N/A   Clear
1:11 AM 66.2 °F 64.4 °F 94% 29.94 in 5.0 mi SSE 3.5 mph - N/A   Clear
1:31 AM 68.0 °F 64.4 °F 88% 29.93 in 7.0 mi SSE 3.5 mph - N/A   Clear
1:55 AM 68.0 °F 64.4 °F 88% 29.92 in 7.0 mi SSE 3.5 mph - N/A   Clear
2:11 AM 68.0 °F 64.4 °F 88% 29.92 in 7.0 mi Calm Calm - N/A   Clear
2:31 AM 66.2 °F 64.4 °F 94% 29.92 in 7.0 mi Calm Calm - N/A   Clear
2:50 AM 66.2 °F 64.4 °F 94% 29.92 in 5.0 mi Calm Calm - N/A   Clear
3:12 AM 66.2 °F 64.4 °F 94% 29.91 in 5.0 mi Calm Calm - N/A   Clear
3:32 AM 66.2 °F 64.4 °F 94% 29.90 in 5.0 mi SE 3.5 mph - N/A   Clear
3:52 AM 66.2 °F 64.4 °F 94% 29.92 in 7.0 mi Calm Calm - N/A   Clear
4:11 AM 66.2 °F 64.4 °F 94% 29.92 in 7.0 mi Calm Calm - N/A   Clear
4:31 AM 66.2 °F 64.4 °F 94% 29.92 in 5.0 mi Calm Calm - N/A   Mostly Cloudy
4:51 AM 66.2 °F 64.4 °F 94% 29.91 in 7.0 mi ENE 3.5 mph - N/A   Scattered Clouds
5:10 AM 66.2 °F 64.4 °F 94% 29.90 in 5.0 mi NE 3.5 mph - N/A   Clear
5:31 AM 66.2 °F 64.4 °F 94% 29.88 in 5.0 mi NE 3.5 mph - N/A   Clear
5:50 AM 66.2 °F 64.4 °F 94% 29.88 in 5.0 mi Calm Calm - N/A   Clear
6:12 AM 66.2 °F 62.6 °F 88% 29.88 in 5.0 mi Calm Calm - N/A   Clear
6:31 AM 66.2 °F 62.6 °F 88% 29.88 in 4.0 mi Calm Calm - N/A   Clear
6:51 AM 66.2 °F 62.6 °F 88% 29.88 in 4.0 mi Calm Calm - N/A Rain Light Rain
7:13 AM 66.2 °F 64.4 °F 94% 29.87 in 4.0 mi ENE 4.6 mph - N/A   Light Drizzle
7:31 AM 66.2 °F 64.4 °F 94% 29.88 in 5.0 mi East 4.6 mph - N/A Rain Light Rain
7:51 AM 66.2 °F 64.4 °F 94% 29.87 in 5.0 mi Calm Calm - N/A Rain Light Rain
8:11 AM 66.2 °F 64.4 °F 94% 29.87 in 5.0 mi Calm Calm - N/A   Clear
8:31 AM 66.2 °F 64.4 °F 94% 29.88 in 5.0 mi East 5.8 mph - N/A   Clear
8:51 AM 68.0 °F 64.4 °F 88% 29.88 in 7.0 mi East 6.9 mph - N/A Rain Light Rain
9:11 AM 68.0 °F 64.4 °F 88% 29.87 in 7.0 mi East 4.6 mph - N/A Rain Light Rain
9:32 AM 69.8 °F 64.4 °F 83% 29.86 in 10.0 mi East 6.9 mph - N/A   Clear
9:51 AM 69.8 °F 64.4 °F 83% 29.87 in 10.0 mi East 5.8 mph - N/A   Clear
10:11 AM 69.8 °F 64.4 °F 83% 29.88 in 10.0 mi SE 3.5 mph - N/A   Scattered Clouds
10:30 AM 69.8 °F 64.4 °F 83% 29.89 in 10.0 mi Calm Calm - N/A   Mostly Cloudy
10:52 AM 69.8 °F 64.4 °F 83% 29.89 in 10.0 mi Calm Calm - N/A   Mostly Cloudy
11:11 AM 69.8 °F 64.4 °F 83% 29.89 in 10.0 mi Calm Calm - N/A   Light Drizzle
11:31 AM 71.6 °F 66.2 °F 83% 29.89 in 7.0 mi Calm Calm - N/A Rain Light Rain
11:51 AM 69.8 °F 66.2 °F 88% 29.88 in 7.0 mi Calm Calm - N/A Rain Light Rain
12:11 PM 71.6 °F 66.2 °F 83% 29.88 in 5.0 mi Calm Calm - N/A Rain Rain
12:31 PM 71.6 °F 66.2 °F 83% 29.88 in 10.0 mi Calm Calm - N/A   Clear
12:53 PM 71.6 °F 66.2 °F 83% 29.87 in 10.0 mi ESE 3.5 mph - N/A Rain Light Rain
1:11 PM 71.6 °F 66.2 °F 83% 29.87 in 10.0 mi Calm Calm - N/A Rain Light Rain
1:33 PM 73.4 °F 66.2 °F 78% 29.86 in 10.0 mi SE 3.5 mph - N/A   Clear
1:51 PM 73.4 °F 66.2 °F 78% 29.86 in 10.0 mi Calm Calm - N/A   Scattered Clouds
2:11 PM 75.2 °F 66.2 °F 73% 29.85 in 10.0 mi Calm Calm - N/A   Scattered Clouds
2:33 PM 75.2 °F 66.2 °F 73% 29.85 in 10.0 mi SSE 4.6 mph - N/A   Mostly Cloudy
2:51 PM 75.2 °F 66.2 °F 73% 29.85 in 10.0 mi Calm Calm - N/A   Scattered Clouds
3:11 PM 75.2 °F 66.2 °F 73% 29.85 in 10.0 mi Calm Calm - N/A   Scattered Clouds
3:31 PM 75.2 °F 66.2 °F 73% 29.85 in 10.0 mi Calm Calm - N/A   Scattered Clouds
3:51 PM 75.2 °F 64.4 °F 69% 29.85 in 10.0 mi Calm Calm - N/A   Mostly Cloudy
4:10 PM 77.0 °F 66.2 °F 69% 29.85 in 10.0 mi Calm Calm - N/A   Overcast
4:32 PM 77.0 °F 64.4 °F 65% 29.85 in 10.0 mi Calm Calm - N/A   Mostly Cloudy
4:51 PM 77.0 °F 66.2 °F 69% 29.85 in 10.0 mi WSW 3.5 mph - N/A   Mostly Cloudy
5:11 PM 78.8 °F 66.2 °F 65% 29.85 in 10.0 mi Calm Calm - N/A   Mostly Cloudy
5:33 PM 77.0 °F 66.2 °F 69% 29.85 in 10.0 mi Calm Calm - N/A   Mostly Cloudy
5:51 PM 77.0 °F 66.2 °F 69% 29.84 in 10.0 mi Calm Calm - N/A   Scattered Clouds
6:11 PM 77.0 °F 64.4 °F 65% 29.84 in 10.0 mi Calm Calm - N/A   Scattered Clouds
6:31 PM 77.0 °F 66.2 °F 69% 29.84 in 10.0 mi Calm Calm - N/A   Scattered Clouds
6:51 PM 78.8 °F 64.4 °F 61% 29.84 in 10.0 mi Calm Calm - N/A   Scattered Clouds
7:12 PM 77.0 °F 66.2 °F 69% 29.84 in 10.0 mi Calm Calm - N/A   Clear
7:30 PM 77.0 °F 66.2 °F 69% 29.84 in 10.0 mi Calm Calm - N/A   Clear
7:51 PM 77.0 °F 66.2 °F 69% 29.84 in 10.0 mi Calm Calm - N/A   Clear
8:11 PM 75.2 °F 66.2 °F 73% 29.84 in 10.0 mi Calm Calm - N/A   Clear
8:31 PM 73.4 °F 66.2 °F 78% 29.85 in 10.0 mi Calm Calm - N/A   Clear
8:51 PM 71.6 °F 66.2 °F 83% 29.85 in 10.0 mi Calm Calm - N/A   Clear
9:11 PM 69.8 °F 66.2 °F 88% 29.86 in 10.0 mi Calm Calm - N/A   Scattered Clouds
9:30 PM 69.8 °F 66.2 °F 88% 29.86 in 7.0 mi Calm Calm - N/A   Scattered Clouds
9:52 PM 69.8 °F 66.2 °F 88% 29.86 in 10.0 mi Calm Calm - N/A   Scattered Clouds
10:10 PM 69.8 °F 64.4 °F 83% 29.86 in 7.0 mi Calm Calm - N/A   Clear
10:32 PM 69.8 °F 66.2 °F 88% 29.87 in 10.0 mi Calm Calm - N/A   Mostly Cloudy
10:51 PM 69.8 °F 66.2 °F 88% 29.87 in - Calm Calm - N/A   Mostly Cloudy
11:11 PM 69.8 °F 66.2 °F 88% 29.87 in 7.0 mi Calm Calm - N/A   Scattered Clouds
11:30 PM 69.8 °F 66.2 °F 88% 29.87 in 10.0 mi Calm Calm - N/A   Mostly Cloudy
11:52 PM 69.8 °F 66.2 °F 88% 29.87 in 10.0 mi Calm Calm - N/A   Mostly Cloudy